Tracking 27188 objects as of 1-Apr-2023
HD Live streaming from Space Station
objects crossing your sky now

IRIDIUM 69

Track IRIDIUM 69 now!
10-day predictions
IRIDIUM 69 is classified as:


NORAD ID: 25319
Int'l Code: 1998-026A
Perigee: 765.4 km
Apogee: 770.2 km
Inclination: 86.4 °
Period: 100.0 minutes
Semi major axis: 7138 km
RCS: 4.3416 m2 (large)
Launch date: May 2, 1998
Source: United States (US)
Launch site: Taiyaun Space Center, China (TSC)
Your satellite tracking list
Your tracking list is empty




NASA's NSSDC Master Catalog

Two Line Element Set (TLE):
1 25319U 98026A   23090.24055259  .00000923  00000-0  29091-3 0  9999
2 25319  86.3942  76.5507 0003401 126.9203 233.2308 14.39344567306887
Source of the keplerian elements: AFSPC